Weather History for HKEL - January, 2013

Change the Weather History Date:

Thursday, January 24, 2013

  Actual Average Record
Temperature  
Mean Temperature 64 °F -  
Max Temperature 80 °F - - ()
Min Temperature 48 °F - - ()
Degree Days  
Heating Degree Days 1    
Growing Degree Days 14 (Base 50)    
Moisture  
Dew Point 45 °F    
Average Humidity 54    
Maximum Humidity 93    
Minimum Humidity 21    
Precipitation  
Precipitation 0.00 in - - ()
Sea Level Pressure  
Sea Level Pressure 30.23 in    
Wind  
Wind Speed 10 mph ()    
Max Wind Speed 18 mph    
Max Gust Speed -    
Visibility 6.2 miles    
Events      
T = Trace of Precipitation, MM = Missing Value Source: Averaged Metar Reports

Daily Weather History Graph

Daily Weather History Graph

Search for Another Location

Airport or City:

Trip Planner

Search our weather history database for the weather conditions in past years. The results will help you decide how hot, cold, wet, or windy it might be!

Date:

Astronomy

Jan. 24, 2013 Rise Set
Actual Time 6:48 AM EAT 6:54 PM EAT
Civil Twilight 6:26 AM EAT 7:16 PM EAT
Nautical Twilight 6:00 AM EAT 7:41 PM EAT
Astronomical Twilight 5:35 AM EAT 8:06 PM EAT
Moon 4:45 PM EAT (1/24) 4:21 AM EAT (1/24)
Length of Visible Light 12h 49m
Length of Day
12h 06m
Waxing Gibbous, 93% of the Moon is Illuminated
Jan 24
Waxing Gibbous
Jan 27
Full
Feb 3
Last Quarter
Feb 10
New
Feb 17
First Quarter

Hourly Weather History & Observations

Time (EAT) Temp. Dew Point Humidity Pressure Visibility Wind Dir Wind Speed Gust Speed Precip Events Conditions
1:00 AM 53.6 °F 46.4 °F 77% 30.21 in - ENE 11.5 mph - N/A   Clear
2:00 AM 53.6 °F 44.6 °F 72% 30.21 in - ENE 15.0 mph - N/A   Clear
3:00 AM 51.8 °F 48.2 °F 88% 30.21 in - ENE 9.2 mph - N/A   Clear
5:00 AM 51.8 °F 48.2 °F 88% - - Calm Calm - N/A   Clear
7:00 AM 48.2 °F 46.4 °F 93% 30.27 in - East 5.8 mph - N/A   Clear
8:00 AM 53.6 °F 50.0 °F 88% 30.30 in - ENE 13.8 mph - N/A   Clear
9:00 AM 64.4 °F 50.0 °F 59% 30.33 in - East 16.1 mph - N/A   Clear
10:00 AM 71.6 °F 44.6 °F 38% 30.33 in - East 17.3 mph - N/A   Clear
11:00 AM 75.2 °F 37.4 °F 25% 30.30 in 6.2 mi ENE 16.1 mph - N/A   Mostly Cloudy
12:00 PM 77.0 °F 41.0 °F 28% 30.27 in 6.2 mi East 11.5 mph - N/A   Mostly Cloudy
1:00 PM 78.8 °F 39.2 °F 24% 30.24 in 6.2 mi East 9.2 mph - N/A   Mostly Cloudy
2:00 PM 80.6 °F 39.2 °F 23% 30.21 in 6.2 mi East 15.0 mph - N/A   Mostly Cloudy
3:00 PM 78.8 °F 35.6 °F 21% 30.21 in 6.2 mi ESE 6.9 mph - N/A   Mostly Cloudy
4:00 PM 78.8 °F 42.8 °F 28% 30.18 in 6.2 mi East 18.4 mph - N/A   Mostly Cloudy
5:00 PM 78.8 °F 39.2 °F 24% 30.18 in 6.2 mi East 11.5 mph - N/A   Mostly Cloudy
6:00 PM 77.0 °F 42.8 °F 29% 30.18 in 6.2 mi ENE 10.4 mph - N/A   Mostly Cloudy
7:00 PM 73.4 °F 46.4 °F 38% 30.18 in 6.2 mi East 5.8 mph - N/A   Mostly Cloudy
8:00 PM 68.0 °F 51.8 °F 56% 30.18 in 6.2 mi ENE 8.1 mph - N/A   Mostly Cloudy
9:00 PM 57.2 °F 46.4 °F 67% 30.21 in - ENE 10.4 mph - N/A   Clear
10:00 PM 55.4 °F 51.8 °F 88% 30.24 in - ENE 12.7 mph - N/A   Clear
11:00 PM 55.4 °F 46.4 °F 72% 30.24 in - ENE 13.8 mph - N/A   Clear